Météo par heure à Kyselivka

Ce jour, 24 Juillet, Samedi

Heure Température Précipitation Vent Pression Humidité
00:00 +18°C° 0 mm 2 m/s 742 mmHg 69%
01:00 +19°C° 0 mm 1 m/s 742 mmHg 71%
02:00 +19°C° 0 mm 1 m/s 742 mmHg 73%
03:00 +19°C° 0 mm 1 m/s 742 mmHg 73%
04:00 +18°C° 0 mm 2 m/s 742 mmHg 74%
05:00 +18°C° 0 mm 2 m/s 742 mmHg 75%
06:00 +18°C° 0 mm 2 m/s 742 mmHg 73%
07:00 +20°C° 0 mm 1 m/s 742 mmHg 72%
08:00 +21°C° 0 mm 1 m/s 742 mmHg 71%
09:00 +21°C° 0 mm 2 m/s 742 mmHg 65%
10:00 +24°C° 0 mm 2 m/s 743 mmHg 60%
11:00 +25°C° 0 mm 2 m/s 743 mmHg 54%
12:00 +25°C° 0 mm 2 m/s 743 mmHg 55%
13:00 +25°C° 0 mm 2 m/s 743 mmHg 56%
14:00 +25°C° 0 mm 2 m/s 743 mmHg 57%
15:00 +25°C° 0 mm 2 m/s 743 mmHg 60%
16:00 +24°C° 0 mm 2 m/s 743 mmHg 63%
17:00 +24°C° 0 mm 2 m/s 743 mmHg 66%
18:00 +23°C° 0 mm 1 m/s 743 mmHg 66%
19:00 +22°C° 0 mm 1 m/s 743 mmHg 67%
20:00 +22°C° 0 mm 1 m/s 743 mmHg 68%
21:00 +22°C° 0 mm 1 m/s 743 mmHg 67%
22:00 +21°C° 0 mm 1 m/s 744 mmHg 67%
23:00 +21°C° 0 mm 1 m/s 744 mmHg 67%

Demain, 25 Juillet, Dimanche

Heure Température Précipitation Vent Pression Humidité
00:00 +21°C° 0 mm 1 m/s 744 mmHg 67%
01:00 +21°C° 0 mm 1 m/s 744 mmHg 67%
02:00 +21°C° 0 mm 1 m/s 744 mmHg 67%
03:00 +21°C° 0 mm 1 m/s 744 mmHg 67%
04:00 +21°C° 0 mm 1 m/s 744 mmHg 68%
05:00 +20°C° 0 mm 1 m/s 744 mmHg 69%
06:00 +21°C° 0 mm 1 m/s 744 mmHg 69%
07:00 +21°C° 0 mm 1 m/s 744 mmHg 70%
08:00 +22°C° 0 mm 1 m/s 745 mmHg 70%
09:00 +23°C° 0 mm 1 m/s 745 mmHg 65%
10:00 +24°C° 0 mm 2 m/s 745 mmHg 59%
11:00 +25°C° 0 mm 2 m/s 745 mmHg 54%
12:00 +26°C° 0 mm 2 m/s 745 mmHg 51%
13:00 +27°C° 0 mm 2 m/s 745 mmHg 48%
14:00 +27°C° 0 mm 2 m/s 745 mmHg 45%
15:00 +27°C° 0 mm 2 m/s 745 mmHg 48%
16:00 +26°C° 0 mm 2 m/s 745 mmHg 52%
17:00 +26°C° 0 mm 2 m/s 745 mmHg 56%
18:00 +25°C° 0 mm 2 m/s 745 mmHg 57%
19:00 +24°C° 0 mm 2 m/s 745 mmHg 59%
20:00 +23°C° 0 mm 2 m/s 745 mmHg 60%
21:00 +21°C° 0 mm 2 m/s 745 mmHg 61%
22:00 +21°C° 0 mm 2 m/s 745 mmHg 63%
23:00 +20°C° 0 mm 2 m/s 745 mmHg 64%

Après-demain, 26 Juillet, Lundi

Heure Température Précipitation Vent Pression Humidité
00:00 +20°C° 0 mm 2 m/s 745 mmHg 64%
01:00 +20°C° 0 mm 2 m/s 745 mmHg 64%
02:00 +19°C° 0 mm 2 m/s 745 mmHg 65%
03:00 +19°C° 0 mm 2 m/s 745 mmHg 65%
04:00 +19°C° 0 mm 2 m/s 745 mmHg 66%
05:00 +18°C° 0 mm 2 m/s 745 mmHg 66%
06:00 +20°C° 0 mm 3 m/s 745 mmHg 64%
07:00 +21°C° 0 mm 3 m/s 745 mmHg 61%
08:00 +24°C° 0 mm 3 m/s 745 mmHg 59%
09:00 +25°C° 0 mm 4 m/s 746 mmHg 56%
10:00 +26°C° 0 mm 4 m/s 746 mmHg 52%
11:00 +27°C° 0 mm 4 m/s 746 mmHg 49%
12:00 +27°C° 0 mm 4 m/s 746 mmHg 51%
13:00 +26°C° 0 mm 4 m/s 746 mmHg 53%
14:00 +26°C° 0 mm 4 m/s 745 mmHg 55%
15:00 +26°C° 0 mm 4 m/s 745 mmHg 55%
16:00 +27°C° 0 mm 4 m/s 745 mmHg 55%
17:00 +27°C° 0 mm 4 m/s 745 mmHg 55%
18:00 +26°C° 0 mm 4 m/s 745 mmHg 60%
19:00 +23°C° 0 mm 4 m/s 745 mmHg 66%
20:00 +21°C° 0 mm 4 m/s 745 mmHg 71%
21:00 +21°C° 0 mm 4 m/s 745 mmHg 70%
22:00 +20°C° 0 mm 4 m/s 745 mmHg 69%
23:00 +20°C° 0 mm 4 m/s 745 mmHg 68%

27 Juillet, Mardi

Heure Température Précipitation Vent Pression Humidité
00:00 +19°C° 0 mm 4 m/s 745 mmHg 69%
01:00 +19°C° 0 mm 3 m/s 745 mmHg 70%
02:00 +18°C° 0 mm 3 m/s 745 mmHg 71%
03:00 +18°C° 0 mm 3 m/s 745 mmHg 73%
04:00 +18°C° 0 mm 4 m/s 745 mmHg 74%
05:00 +18°C° 0 mm 4 m/s 744 mmHg 75%
06:00 +20°C° 0 mm 4 m/s 744 mmHg 71%
07:00 +22°C° 0 mm 5 m/s 744 mmHg 66%
08:00 +23°C° 0 mm 6 m/s 744 mmHg 62%
09:00 +26°C° 0 mm 6 m/s 744 mmHg 57%
10:00 +28°C° 0 mm 6 m/s 744 mmHg 53%
11:00 +29°C° 0 mm 7 m/s 744 mmHg 48%
12:00 +30°C° 0 mm 7 m/s 744 mmHg 46%
13:00 +32°C° 0 mm 7 m/s 744 mmHg 44%
14:00 +32°C° 0 mm 7 m/s 744 mmHg 43%
15:00 +32°C° 0 mm 6 m/s 743 mmHg 46%
16:00 +30°C° 0 mm 6 m/s 743 mmHg 49%
17:00 +29°C° 0 mm 5 m/s 743 mmHg 52%
18:00 +28°C° 0 mm 5 m/s 743 mmHg 57%
19:00 +26°C° 0 mm 4 m/s 742 mmHg 62%
20:00 +25°C° 0 mm 4 m/s 742 mmHg 67%
21:00 +23°C° 0.1 mm 4 m/s 742 mmHg 70%
22:00 +22°C° 0.1 mm 4 m/s 742 mmHg 73%
23:00 +21°C° 0.1 mm 5 m/s 742 mmHg 75%

28 Juillet, Mercredi

Heure Température Précipitation Vent Pression Humidité
00:00 +21°C° 0.4 mm 4 m/s 742 mmHg 80%
01:00 +20°C° 0.4 mm 4 m/s 741 mmHg 84%
02:00 +19°C° 0.4 mm 4 m/s 741 mmHg 88%
03:00 +19°C° 0.2 mm 5 m/s 741 mmHg 88%
04:00 +19°C° 0.2 mm 5 m/s 740 mmHg 87%
05:00 +19°C° 0.2 mm 6 m/s 740 mmHg 87%
06:00 +21°C° 0.4 mm 6 m/s 740 mmHg 85%
07:00 +22°C° 0.4 mm 6 m/s 740 mmHg 83%
08:00 +23°C° 0.4 mm 5 m/s 740 mmHg 81%
09:00 +26°C° 0 mm 5 m/s 740 mmHg 73%
10:00 +28°C° 0 mm 6 m/s 740 mmHg 64%
11:00 +30°C° 0 mm 6 m/s 740 mmHg 56%
12:00 +32°C° 0 mm 6 m/s 739 mmHg 51%
13:00 +33°C° 0 mm 6 m/s 739 mmHg 47%
14:00 +35°C° 0 mm 6 m/s 739 mmHg 43%
15:00 +34°C° 0 mm 6 m/s 739 mmHg 45%
16:00 +33°C° 0 mm 6 m/s 738 mmHg 48%
17:00 +32°C° 0 mm 6 m/s 738 mmHg 51%
18:00 +29°C° 0.1 mm 6 m/s 738 mmHg 58%
19:00 +27°C° 0.1 mm 5 m/s 738 mmHg 65%
20:00 +23°C° 0.1 mm 5 m/s 738 mmHg 73%
21:00 +22°C° 1.1 mm 5 m/s 739 mmHg 80%
22:00 +21°C° 1.1 mm 4 m/s 739 mmHg 87%
23:00 +20°C° 1.1 mm 4 m/s 739 mmHg 94%

29 Juillet, Jeudi

Heure Température Précipitation Vent Pression Humidité
00:00 +20°C° 0.8 mm 4 m/s 739 mmHg 95%
01:00 +20°C° 0.8 mm 4 m/s 739 mmHg 96%
02:00 +19°C° 0.8 mm 5 m/s 739 mmHg 96%
03:00 +19°C° 0.2 mm 5 m/s 739 mmHg 96%
04:00 +19°C° 0.2 mm 5 m/s 739 mmHg 96%
05:00 +19°C° 0.2 mm 5 m/s 739 mmHg 96%
06:00 +20°C° 0 mm 5 m/s 740 mmHg 93%
07:00 +21°C° 0 mm 5 m/s 740 mmHg 90%
08:00 +21°C° 0 mm 5 m/s 740 mmHg 87%
09:00 +23°C° 0.2 mm 5 m/s 741 mmHg 81%
10:00 +25°C° 0.2 mm 5 m/s 741 mmHg 74%
11:00 +26°C° 0.2 mm 4 m/s 741 mmHg 68%
12:00 +27°C° 0.5 mm 4 m/s 741 mmHg 63%
13:00 +28°C° 0.5 mm 4 m/s 741 mmHg 59%
14:00 +28°C° 0.5 mm 4 m/s 741 mmHg 55%
15:00 +27°C° 0 mm 3 m/s 741 mmHg 58%
16:00 +26°C° 0 mm 3 m/s 741 mmHg 61%
17:00 +25°C° 0 mm 2 m/s 741 mmHg 65%
18:00 +25°C° 0 mm 2 m/s 741 mmHg 66%
19:00 +24°C° 0 mm 2 m/s 741 mmHg 67%
20:00 +24°C° 0 mm 1 m/s 742 mmHg 69%
21:00 +23°C° 0 mm 2 m/s 742 mmHg 70%
22:00 +21°C° 0 mm 2 m/s 742 mmHg 72%
23:00 +21°C° 0 mm 2 m/s 742 mmHg 73%
Voir plus

Nous avons besoin de votre consentement

Meteoprog et ses fournisseurs de services peuvent stocker et accéder à des données personnelles telles que des cookies, des identifiants d'appareils ou d'autres technologies similaires sur votre appareil et traiter ces données pour personnaliser le contenu et les publicités, ainsi que pour fournir des fonctionnalités de médias sociaux et analyser le trafic.

  • Stocker et/ou accéder à des informations sur votre appareil

    Des cookies, des identifiants d'appareils ou d'autres informations peuvent être stockés ou accessibles sur votre appareil aux fins indiquées ci-dessus.

  • Annonces et contenus personnalisés, mesure des annonces et des contenus, connaissance de l'audience et développement de produits

    Les annonces et le contenu peuvent être personnalisés en fonction d'un profil. D'autres données peuvent être ajoutées pour mieux personnaliser les annonces et le contenu. Les performances des publicités et du contenu peuvent être mesurées. Il est possible d'obtenir des informations sur le public qui a vu les publicités et le contenu. Ces données peuvent être utilisées pour développer ou améliorer l'expérience de l'utilisateur, les systèmes et les logiciels.

En cliquant sur "J'accepte", vous autorisez l'utilisation de cookies, des identifiants d'appareils, des balises web ou d'autres technologies similaires. Vos paramètres peuvent être modifiés dans le navigateur de votre appareil.

Dans certains cas, des intérêts légitimes peuvent être invoqués plutôt qu'un consentement. Vous pouvez en savoir plus à ce sujet dans notre Politique de confidentialité et de cookies.